Orbital Elements at Epoch 2459200.5 (2020-Dec-17.0) TDB
Reference: JPL 19 (heliocentric ecliptic J2000)
Element | Value | Uncertainty (1-sigma) | Units |
e | .1082989131200445 | 6.9134e-08 | |
a | 2.699731468298272 | 3.1786e-08 | au |
q | 2.407353484565587 | 1.86e-07 | au |
i | 10.74267143659651 | 7.2373e-06 | deg |
node | 57.8915891736793 | 3.687e-05 | deg |
peri | 9.256058867501441 | 5.4015e-05 | deg |
M | 173.5610423014064 | 4.4484e-05 | deg |
tp | 2458419.359727689181 (2018-Oct-27.85972769) | 0.00019107 | TDB |
period | 1620.239739880936 4.44 | 2.8614e-05 7.834e-08 | d yr |
n | .2221893409591687 | 3.924e-09 | deg/d |
Q | 2.992109452030956 | 3.5228e-08 | au |
|
| | Orbit Determination Parameters
Additional Information
|